KTBN

Waynesville-St. Robert Regional Airport

Airport
ICAO code
KTBN
Summary
ICAO Region
NAM
ICAO Territory
Location

Fort Leonard Wood/Waynesville, Missouri,

Coordinates
37° 44' 31" N , 92° 8' 26" W
KCC
Metar
KTBN 202155Z AUTO 00000KT 10SM CLR 19/M01 A3008 RMK AO2 SLP189 T01931012

Description

Waynesville-St. Robert Regional Airport, also known as Forney Field, is a public and military (USA) use airport located at Fort Leonard Wood in Pulaski County, Missouri.

Climatology

Humid “subtropical” climate (Köppen climate classification Cfa) - characterized by hot, humid summers and cool winters. Significant amounts of precipitation occur in all seasons in most areas. Winter rainfall (and sometimes snowfall) is associated with large storms that the westerlies steer from west to east. Most summer rainfall occurs during thunderstorms.

Runways

Designator Length Width Surface Rops
14/32 1840 46 ASP Yes/Yes

Airport map

Aerial View

SKYbrary Partners:

Safety knowledge contributed by: